AEROCUBE 4.5A

Last updated on Sun Dec 14 2025 00:03:49 GMT+0000 (Coordinated Universal Time)

1 38767U 12048K 25347.26932820 .00081756 00000+0 13739-2 0 9990 2 38767 64.6426 317.6005 0066830 231.6156 127.8970 15.48759622343553
UTC large
Height (km)
Speed (km/s)
/
Latitude / Longitude
Inclination (degrees)
Orbital Period (minutes)
Azimuth
Elevation
Range (km)
Doppler Factor

Next 0 passes for location: London (51.5072 / 0.1276)

Sorry there are no passes over London.